Location: 5810 Zion Rd, Cleves, OH 45002, USA
(39.1922°N, 84.7113°W)
Time: 15:22:48
(UTC-05:00)

Altair - Visible Passes

Search period start: 06 December 2019 00:00
Search period end: 16 December 2019 00:00
Orbit: 1502 x 1682 km, 47.2° (Epoch: 05 December)

Date Brightness Start Highest point End Pass type
(mag) Time Alt. Az. Time Alt. Az. Time Alt. Az.
06 Dec 9.7 02:16:05 11° ENE 02:16:05 11° ENE 02:16:20 10° ENE visible
06 Dec 7.5 04:14:08 70° E 04:14:08 70° E 04:22:18 10° ESE visible
06 Dec 7.9 06:12:10 23° W 06:17:15 41° SW 06:25:44 10° SSE visible
06 Dec 9.3 21:22:54 10° SSW 21:24:14 15° SSW 21:24:14 15° SSW visible
07 Dec 8.0 03:50:39 50° E 03:50:39 50° E 03:57:04 10° ESE visible
07 Dec 7.8 05:48:41 32° W 05:52:10 45° SW 06:00:49 10° SSE visible
07 Dec 9.0 20:57:55 10° SSW 21:00:57 22° SSW 21:00:57 22° SSW visible
08 Dec 8.6 03:27:12 34° E 03:27:12 34° E 03:31:51 10° ESE visible
08 Dec 7.6 05:25:15 43° WSW 05:27:05 49° SW 05:35:50 10° SSE visible
08 Dec 8.6 20:32:58 10° SSW 20:37:40 28° S 20:37:40 28° S visible
09 Dec 9.1 03:03:48 23° E 03:03:48 23° E 03:06:37 10° ESE visible
09 Dec 7.5 05:01:51 53° SW 05:02:00 53° SW 05:10:51 10° SSE visible
09 Dec 9.0 07:01:58 10° WSW 07:05:05 12° WSW 07:08:14 10° SW visible
09 Dec 8.3 20:08:04 10° SSW 20:14:22 33° SSE 20:14:22 33° SSE visible
09 Dec 9.5 22:11:13 10° WSW 22:12:25 15° WSW 22:12:25 15° WSW visible
10 Dec 9.5 02:40:25 14° E 02:40:25 14° E 02:41:22 10° ESE visible
10 Dec 7.7 04:38:28 51° S 04:38:28 51° S 04:45:51 10° SE visible
10 Dec 8.9 06:36:32 11° W 06:40:05 14° WSW 06:44:20 10° SSW visible
10 Dec 8.2 19:43:11 10° SSW 19:51:02 34° SE 19:51:02 34° SE visible
10 Dec 9.0 21:45:59 10° WSW 21:49:05 24° WSW 21:49:05 24° WSW visible
11 Dec 8.1 04:15:08 41° SSE 04:15:08 41° SSE 04:20:49 10° SE visible
11 Dec 8.7 06:13:11 15° WSW 06:15:04 16° SW 06:20:08 10° SSW visible
11 Dec 8.2 19:18:21 10° S 19:26:30 31° SE 19:27:41 30° ESE visible
11 Dec 8.5 21:20:47 10° WSW 21:25:44 36° SW 21:25:44 36° SW visible
12 Dec 8.6 03:51:49 29° SE 03:51:49 29° SE 03:55:46 10° SE visible
12 Dec 8.7 05:49:52 18° SW 05:50:03 18° SW 05:55:46 10° SSW visible
12 Dec 8.3 18:53:33 10° S 19:01:25 28° SE 19:04:18 24° ESE visible
12 Dec 8.0 20:55:35 10° SW 21:02:21 51° SW 21:02:21 51° SW visible
13 Dec 9.1 03:28:30 19° SE 03:28:30 19° SE 03:30:41 10° SE visible
13 Dec 8.7 05:26:34 20° SW 05:26:34 20° SW 05:31:17 10° S visible
13 Dec 8.5 18:28:49 10° S 18:36:21 26° SE 18:40:52 18° E visible
13 Dec 7.5 20:30:25 10° SW 20:38:55 70° SSW 20:38:55 70° SSW visible
13 Dec 9.6 22:36:00 10° W 22:36:58 14° W 22:36:58 14° W visible
14 Dec 9.6 03:05:13 11° SE 03:05:13 11° SE 03:05:36 10° SE visible
14 Dec 8.8 05:03:16 19° SSW 05:03:16 19° SSW 05:06:42 10° S visible
14 Dec 8.7 18:04:08 10° S 18:11:17 23° SE 18:17:25 12° E visible
14 Dec 7.3 20:05:15 10° SW 20:14:58 74° SE 20:15:27 73° ESE visible
14 Dec 9.2 22:10:41 10° W 22:13:30 22° W 22:13:30 22° W visible
15 Dec 9.0 04:39:58 16° S 04:39:58 16° S 04:42:03 10° S visible
15 Dec 8.8 17:39:32 10° S 17:46:14 21° SE 17:52:47 10° E visible
15 Dec 7.4 19:40:07 10° SW 19:49:49 70° SE 19:51:57 56° E visible
15 Dec 8.7 21:45:22 10° W 21:49:59 31° W 21:49:59 31° W visible
